Back to catalog

CZ-6A DEB

AlivePO
NORAD 61817·DEBRIS·🇨🇳 China

Launched Aug 6, 2024 from Taiyuan Satellite Launch Center

Loading…

Next Passes (next 24 hours)

TLE

FreshSource: Space-Track

Epoch: Sep 14, 2026, 08:43 UTC

1 61817U 24140ACH 26257.36385210  .00001810  00000-0  54097-3 0  9992
2 61817  88.7256 236.0130 0050881  48.0499 312.5023 14.41811899106506

Track CZ-6A DEB in real time with AllMySat

Download on the App Store